This is the latest recevied weather packets stored in our database for station/object IW2NIA-3. If no packets are shown the sender has not sent any weather packets the latest 10 day(s).
| Time | Temp. | Humidity | Pressure | Rain* | Wind** | Luminosity | Snow |
|---|---|---|---|---|---|---|---|
| 1788265120 | 27.78° C | 58% | 1018 hPa | 0 mm | - | - | - |
| 1788264211 | 27.22° C | 60% | 1018 hPa | 0 mm | - | - | - |
| 1788263310 | 26.67° C | 62% | 1017.9 hPa | 0 mm | - | - | - |
| 1788262408 | 27.22° C | 62% | 1017.9 hPa | 0 mm | - | - | - |
| 1788261528 | 26.67° C | 63% | 1018.1 hPa | 0 mm | - | - | - |
| 1788260626 | 26.67° C | 62% | 1018.3 hPa | 0 mm | - | - | - |
| 1788259720 | 26.11° C | 65% | 1018.2 hPa | 0 mm | - | - | - |
| 1788258828 | 26.67° C | 65% | 1018.2 hPa | 0 mm | - | - | - |
| 1788257923 | 26.67° C | 65% | 1018.2 hPa | 0 mm | - | - | - |
| 1788257005 | 26.11° C | 65% | 1018.4 hPa | 0 mm | - | - | - |
| 1788256121 | 26.11° C | 66% | 1018.4 hPa | 0 mm | - | - | - |
| 1788255221 | 25.56° C | 73% | 1018.4 hPa | 0 mm | - | - | - |
| 1788254311 | 25° C | 74% | 1018.4 hPa | 0 mm | - | - | - |
| 1788253425 | 25° C | 77% | 1018.4 hPa | 0 mm | - | - | - |
| 1788252518 | 25° C | 77% | 1018.3 hPa | 0 mm | - | - | - |
| 1788251615 | 24.44° C | 77% | 1018.3 hPa | 0 mm | - | - | - |
| 1788250802 | 24.44° C | 78% | 1018.2 hPa | 0 mm | - | - | - |
| 1788249825 | 24.44° C | 77% | 1018.1 hPa | 0 mm | - | - | - |
| 1788248927 | 23.89° C | 78% | 1017.9 hPa | 0 mm | - | - | - |
| 1788248006 | 23.33° C | 79% | 1017.9 hPa | 0 mm | - | - | - |
| 1788247117 | 23.33° C | 80% | 1017.9 hPa | 0 mm | - | - | - |
| 1788246227 | 22.22° C | 81% | 1017.8 hPa | 0 mm | - | - | - |
| 1788245317 | 21.67° C | 80% | 1017.7 hPa | 0 mm | - | - | - |
| 1788244414 | 21.67° C | 78% | 1017.7 hPa | 0 mm | - | - | - |
| 1788243511 | 21.67° C | 74% | 1017.5 hPa | 0 mm | - | - | - |
* Rain latest hour (hover to see other rain measurements)
** Current wind speed in m/s (hover to see current wind gust speed)